Regional Weather Roundup
Issued by NWS

Home | Current Version | Previous Version | Graphics & Text | Print | Product List | Glossary On
Versions: 1 2 3 4 5 6 7 8 9 10 11 12 13 14 15 16 17 18 19 20 21 22 23 24 25 26 27 28 29 30 31 32 33 34 35 36 37 38 39 40 41 42 43 44 45 46 47 48 49 50
000
ASUS43 KBIS 220910
RWRND

NORTH DAKOTA REGIONAL WEATHER ROUNDUP
NATIONAL WEATHER SERVICE BISMARCK ND
400 AM CDT TUE MAY 22 2018

NOTE: "FAIR" INDICATES FEW OR NO CLOUDS BELOW 12,000 FEET WITH NO
SIGNIFICANT WEATHER AND/OR OBSTRUCTIONS TO VISIBILITY.


NDZ001>003-009>011-017-221000-
NORTHWEST NORTH DAKOTA

CITY           SKY/WX    TMP DP  RH WIND       PRES   REMARKS
WILLISTON      PTCLDY    49  43  80 CALM      29.88R
MINOT          CLOUDY    59  49  69 S8        29.88F
MINOT AFB      CLOUDY    56  48  75 S8        29.87S
$$

NDZ018>021-031>035-040>046-221000-
SOUTHWEST NORTH DAKOTA

CITY           SKY/WX    TMP DP  RH WIND       PRES   REMARKS
BISMARCK       PTCLDY    54  52  93 SE7       29.93S
DICKINSON      MOCLDY    53  32  44 S9        29.90S
GARRISON         N/A     50  47  89 CALM      29.91S
HETTINGER ARPT MOCLDY    53  40  61 E6        29.93F
$$

NDZ004>008-012>016-024-026-027-054-221000-
NORTHEAST NORTH DAKOTA

CITY           SKY/WX    TMP DP  RH WIND       PRES   REMARKS
GRAND FORKS    FAIR      52  52 100 S7        29.95S
GRND FRKS AFB  FAIR      53  53 100 S8        29.95S
DEVILS LAKE    FAIR      57  54  89 S8        29.95S
$$

NDZ022-023-025-028>030-036>039-047>053-221000-
SOUTHEAST NORTH DAKOTA

CITY           SKY/WX    TMP DP  RH WIND       PRES   REMARKS
FARGO          FAIR      54  53  97 SE3       29.97S
JAMESTOWN      MOCLDY    53  52  96 S3        29.95S FOG
$$




USA.gov is the U.S. government's official web portal to all federal, state and local government web resources and services.